SCP
0 0 0 0 0 0 -0 -0 -0 -0 0 0 0 0 0 0 0 0 0 0 0 0 0 0 0 -0 -0 -0 -0 -0 0 0 0 0 0 0 -0 0 0 0 0 -0 -0
0 0 0 0 0 -0 -0 -0 -0 -0 0 0 0 0 0 0 0 0 0 0 0 0 -0 -0 0 0 -0 -0 -0 -0 0 0 0 0 0 0 -0 -0 -0 -0 -0 -0 -0
0 0 0 0 0 0 -0 0 -0 -0 0 0 0 0 0 0 0 0 0 0 0 -0 -0 -0 -0 -0 -0 -0 -0 -0 -0 0 0 0 0 0 -0 -0 -0 -0 -0 -0 -0
-0 0 0 0 0 0 0 -0 -0 -0 -0 0 0 0 0 0 0 0 0 0 0 -0 -0 -0 -0 -0 -0 -0 -0 -0 0 0 0 0 0 0 -0 -0 -0 -0 -0 -0 -0
-0 -0 0 0 -0 -0 -0 -0 -0 -0 -0 -0 0 0 0 0 0 0 0 -0 -0 -0 0 0 -0 -0 -0 -0 -0 0 0 0 0 0 -0 -0 -0 -0 -0 -0 -0 -0 -0
0 0 0 0 -0 -0 -0 -0 -0 -0 -0 -0 -0 -0 0 0 0 0 0 0 -0 -0 -0 -0 -0 -0 -0 -0 -0 0 0 0 0 0 0 -0 -0 -0 -0 -0 -0 -0 -0
0 -0 -0 0 -0 -0 -0 -0 -0 -0 -0 -0 -0 -0 -0 -0 -0 -0 -0 -0 -0 -0 -0 0 -0 -0 -0 -0 0 0 0 0 0 -0 -0 -0 -0 -0 -0 -0 -0 -0 -0
-0 -0 -0 -0 -0 -0 -0 -0 -0 -0 -0 -0 -0 -0 -0 -0 -0 -0 -0 0 -0 -0 0 -0 -0 0 -0 -0 0 0 0 0 0 0 -0 0 0 0 -0 0 0 0 0
-0 -0 -0 -0 -0 -0 -0 -0 -0 -0 -0 -0 -0 -0 -0 -0 -0 -0 -0 -0 -0 0 -0 0 0 0 0 -0 -0 0 0 0 -0 0 0 0 0 0 -0 0 -0 -0 0
-0 -0 -0 -0 -0 0 -0 -0 -0 -0 -0 -0 -0 -0 0 0 0 0 0 0 0 -0 0 0 0 -0 -0 0 0 0 0 -0 -0 -0 0 -0 -0 0 0 0 0 0 0
0 -0 -0 -0 -0 -0 -0 -0 -0 -0 -0 -0 0 0 -0 -0 0 0 -0 0 0 -0 0 0 0 0 0 -0 0 0 0 0 0 -0 -0 0 0 0 0 0 0 0 0
0 -0 0 -0 -0 -0 -0 -0 0 -0 0 0 0 0 -0 0 0 0 0 0 0 0 0 0 0 0 1 0 0 0 0 0 0 0 0 0 0 0 0 0 0 0 0
-0 -0 -0 -0 0 -0 -0 0 0 -0 -0 0 -0 -0 0 -0 -0 -0 0 0 0 0 0 0 1 0 0 0 0 0 0 0 0 0 0 0 0 0 0 0 0 0 0
0 -0 -0 -0 -0 -0 -0 -0 0 0 -0 -0 0 -0 0 0 0 0 0 0 0 0 0 0 0 0 0 0 0 0 0 0 0 0 0 0 0 0 0 0 0 0 0
0 0 -0 0 0 0 0 0 0 -0 -0 0 0 0 -0 0 0 0 0 0 0 0 0 0 0 0 0 0 0 0 0 0 0 0 0 0 0 0 1 1 1 1 1
0 0 0 -0 -0 0 0 0 0 0 -0 0 0 0 0 0 0 0 0 0 0 0 0 0 0 0 0 0 0 0 0 0 0 0 0 0 1 1 1 1 1 1 1
0 -0 0 0 0 0 0 -0 0 0 -0 -0 0 0 0 0 0 0 0 0 -0 0 0 0 0 0 0 0 0 0 0 0 0 0 0 1 1 1 1 1 1 1 1
-0 0 -0 -0 0 -0 -0 0 0 -0 -0 -0 0 0 0 0 0 1 0 0 0 0 0 0 0 0 0 0 0 0 0 0 0 1 0 0 0 1 1 1 1 1 1
0 0 0 0 -0 0 0 0 0 0 0 0 -0 0 0 0 0 0 0 0 1 0 0 0 0 0 0 0 0 0 0 0 0 0 0 0 0 0 0 1 1 1 1
-0 0 0 0 -0 0 -0 0 -0 0 0 0 0 0 0 0 0 0 0 0 1 0 0 0 0 0 0 0 0 0 0 0 0 0 0 0 0 0 0 0 1 0 0
-0 0 0 -0 0 -0 0 0 0 0 0 0 0 0 0 0 0 0 0 0 0 0 0 0 0 0 0 0 0 0 0 0 0 -0 0 0 0 0 0 0 0 0 0
0 -0 0 0 0 -0 0 0 0 0 0 0 0 -0 0 0 0 0 0 0 0 0 0 0 0 0 -0 0 0 0 0 0 0 0 0 0 0 0 0 0 0 0 0
0 0 0 0 0 0 0 0 0 0 0 0 0 0 0 -0 0 0 0 0 0 0 -0 0 0 0 0 0 0 0 0 0 -0 -0 -0 0 0 -0 0 -0 0 0 0
-0 0 -0 -0 0 0 0 0 0 0 0 0 0 -0 0 0 0 -0 -0 0 0 0 0 0 0 0 0 -0 -0 0 0 0 0 -0 -0 -0 0 -0 -0 -0 -0 -0 0
0 0 -0 -0 0 0 -0 -0 -0 0 0 0 0 0 0 0 0 -0 -0 0 0 0 0 0 0 0 0 0 0 -0 0 0 0 0 -0 -0 -0 0 -0 -0 -0 -0 -0
0 0 0 0 0 -0 -0 0 0 0 0 0 0 0 -0 -0 -0 0 -0 -0 0 0 0 0 0 0 0 0 0 0 0 0 0 0 0 -0 0 0 0 -0 0 0 -0
Wind_Speed_500mb
28 28 29 30 31 31 31 32 32 31 30 30 32 34 35 36 38 37 37 41 42 39 38 37 36 36 35 35 36 37 38 38 41 40 36 35 31 30 37 43 32 27 34
34 28 32 32 30 31 30 32 31 30 30 31 32 33 35 36 39 37 37 41 39 39 40 38 36 35 35 34 38 37 38 45 44 43 43 37 36 32 34 34 29 32 31
35 32 30 29 30 30 29 29 29 30 31 31 33 32 35 37 37 38 38 39 39 39 37 37 34 30 33 33 32 38 44 51 35 51 33 32 37 38 35 35 35 33 32
34 28 27 29 27 27 26 25 27 30 30 31 31 33 35 37 34 38 39 36 38 38 38 36 33 31 32 32 34 37 42 43 41 42 39 34 32 39 38 38 36 36 34
40 33 29 27 23 22 24 23 23 25 27 29 30 31 35 35 38 39 40 39 35 35 35 32 30 30 33 31 35 40 45 48 45 31 31 30 31 37 38 37 36 36 34
31 25 27 22 20 18 18 18 20 21 25 29 28 30 33 35 36 38 36 31 30 31 30 32 31 28 30 31 33 41 46 42 32 32 32 27 34 31 35 34 35 34 31
35 27 26 23 19 18 19 18 19 22 24 27 29 31 31 32 32 35 35 34 36 35 35 34 31 31 31 32 33 40 49 45 30 29 29 30 31 31 29 26 28 29 28
36 32 23 22 19 21 21 20 21 22 24 27 27 31 30 32 31 33 34 36 37 37 37 37 35 33 34 33 35 41 43 35 25 28 29 31 31 28 27 29 25 22 20
28 27 22 18 18 19 22 21 23 24 25 29 27 28 30 31 29 30 32 36 37 36 38 37 36 34 34 34 39 46 45 41 28 30 26 23 30 30 28 28 23 23 23
25 23 27 22 16 22 19 23 24 27 26 29 28 29 30 32 31 30 28 33 31 35 35 36 37 37 36 37 39 42 38 32 23 22 20 26 24 26 25 25 24 24 24
23 28 23 18 25 19 20 21 23 25 28 27 27 32 35 23 25 26 28 34 34 35 35 38 38 33 35 41 41 36 34 22 20 18 19 24 23 25 25 25 24 24 25
25 23 23 27 19 26 20 22 22 26 22 23 23 27 28 31 29 23 30 30 31 33 33 35 33 31 21 15 20 28 21 22 22 18 23 22 24 25 25 25 26 27 27
25 28 27 25 25 20 17 21 21 14 19 26 24 25 26 26 27 20 23 20 18 22 17 21 17 22 18 18 21 21 23 21 20 16 22 23 24 26 26 28 29 29 30
24 25 24 25 15 21 19 24 19 20 20 22 21 24 27 23 22 17 17 17 15 14 18 20 19 18 18 19 19 22 22 21 20 16 26 25 27 28 30 30 30 30 30
26 23 23 22 26 22 31 21 21 26 25 23 22 19 23 21 23 20 14 16 14 13 16 17 17 18 18 17 17 20 19 22 22 17 27 28 28 29 30 30 29 30 30
26 24 23 22 23 25 26 26 22 25 28 25 20 20 23 22 21 20 17 14 13 12 16 11 10 13 14 13 15 17 19 18 19 21 15 27 28 27 29 29 30 31 32
26 25 25 24 22 17 35 26 21 27 25 25 20 23 20 22 15 17 13 20 13 16 13 13 12 13 11 12 14 16 16 18 15 17 15 10 25 26 25 27 29 31 32
28 25 27 24 23 22 26 26 24 26 25 22 23 20 20 21 18 19 15 14 15 12 11 11 12 12 11 10 14 14 15 13 13 15 11 12 12 7 21 25 29 32 33
27 28 28 27 28 24 30 22 26 28 24 24 23 19 16 13 18 11 13 10 16 9 10 11 10 10 12 11 14 12 12 12 12 10 10 13 14 15 6 26 32 32 33
27 29 31 29 27 26 23 26 24 25 23 23 21 25 16 11 13 11 11 14 13 8 7 7 15 8 9 2 13 10 10 10 10 11 8 11 9 11 6 8 12 19 30
28 27 23 30 30 29 23 26 25 26 24 24 21 16 18 12 10 23 9 11 14 7 17 6 3 11 8 4 3 9 7 10 11 10 11 10 9 8 7 10 11 9 18
29 27 27 24 28 28 19 22 22 25 21 24 20 20 16 15 12 11 15 12 13 10 9 1 4 5 9 5 11 4 13 14 11 9 9 8 10 9 6 8 9 10 11
31 28 28 22 28 27 21 17 20 20 17 18 14 19 20 17 15 11 14 10 14 17 10 6 3 5 9 7 7 11 8 17 15 9 8 5 8 6 5 5 7 7 11
31 27 28 25 24 26 26 21 24 21 17 18 15 19 18 18 18 15 13 16 24 11 7 3 3 10 9 7 8 8 14 5 9 14 9 5 7 6 5 2 9 2 12
34 30 27 29 23 28 24 29 21 16 13 13 17 19 23 24 18 18 16 14 20 10 16 3 6 5 1 7 9 8 8 6 5 9 17 11 8 6 3 4 6 8 6
36 33 29 31 26 24 24 20 20 15 13 14 18 13 14 11 18 22 19 18 18 14 11 9 9 11 3 5 8 5 2 7 6 7 2 6 7 6 3 8 2 6 10
Wind_Direction_500mb
132 130 116 111 111 107 106 105 96 91 89 87 87 86 87 89 92 92 93 96 92 95 94 91 90 87 81 81 83 83 85 85 82 77 79 85 83 92 99 95 89 98 95
135 132 119 113 113 109 106 104 98 91 87 87 86 88 91 92 94 94 92 97 95 96 94 89 86 84 81 79 79 82 85 80 76 79 68 68 77 89 97 102 117 99 94
135 132 123 122 117 112 109 106 101 97 91 89 92 93 91 93 93 96 101 97 97 96 90 89 83 85 84 84 81 85 87 81 68 83 78 66 76 84 90 95 91 91 91
129 128 126 120 114 115 112 105 98 94 90 86 94 98 94 97 95 96 102 98 95 92 89 85 84 87 82 83 81 82 89 86 70 83 86 87 75 79 85 84 88 87 84
136 134 133 124 120 113 107 105 101 100 94 91 95 97 99 100 99 97 97 99 95 90 88 85 86 81 83 84 84 84 88 73 66 64 78 73 77 77 82 78 77 84 86
125 136 131 126 123 123 118 112 110 101 100 96 95 98 97 103 104 101 97 95 92 90 87 84 85 81 86 85 87 92 86 84 79 74 67 80 81 83 79 85 84 82 82
132 130 130 126 117 114 112 109 116 114 106 104 101 99 100 104 107 104 95 93 93 90 87 85 85 82 83 84 88 97 90 76 77 77 76 77 85 90 80 85 85 82 79
136 135 123 123 120 118 120 112 114 115 112 109 108 99 101 111 108 106 97 96 94 88 83 82 82 82 81 84 85 95 91 98 75 80 76 77 79 85 83 77 80 83 83
136 127 126 119 121 118 120 115 116 113 116 118 116 106 104 114 113 109 99 100 92 85 82 82 81 81 81 81 84 92 91 81 87 84 72 69 72 77 79 77 71 71 68
119 128 134 132 118 106 107 120 121 122 119 119 117 107 101 101 105 96 98 103 90 87 85 80 76 73 73 77 81 81 76 76 79 80 86 83 75 75 75 73 71 66 65
140 134 142 103 125 138 112 114 112 115 113 109 114 106 93 98 103 104 117 103 92 83 78 72 72 68 71 63 66 68 73 86 85 83 79 78 79 76 73 72 71 71 68
145 138 138 134 141 122 119 121 111 100 114 122 119 97 112 120 118 122 112 104 93 80 69 64 64 61 64 39 50 66 81 80 79 75 71 76 79 78 77 76 74 71 70
153 130 126 121 135 117 129 104 116 109 111 126 113 115 119 110 103 112 101 81 76 48 56 42 25 68 87 79 76 78 80 80 77 75 71 77 80 81 81 80 79 78 75
148 134 132 144 146 127 128 107 127 131 134 127 138 116 111 111 119 121 121 117 99 96 75 69 68 94 87 79 84 75 82 83 83 65 67 75 79 84 84 84 83 80 75
152 146 144 144 144 139 122 128 129 132 134 137 123 131 117 124 121 121 128 109 113 106 84 78 80 85 91 86 84 80 75 85 88 76 59 74 80 84 87 85 83 79 74
154 150 145 148 133 155 128 128 128 133 133 131 138 131 122 125 124 122 111 102 113 74 82 85 100 85 92 86 87 84 83 72 92 92 61 62 77 84 85 85 82 77 70
159 158 151 147 149 163 132 128 127 133 133 135 142 126 130 125 129 128 126 117 89 76 75 66 83 88 84 83 93 97 79 85 75 86 95 53 48 66 79 81 77 69 62
157 157 152 153 152 135 135 133 132 135 138 142 137 135 141 146 135 106 103 99 117 82 90 83 92 90 94 100 102 98 94 84 82 77 82 85 91 14 51 71 70 66 59
157 157 154 155 154 147 152 137 142 140 140 143 144 148 149 133 133 103 121 133 98 81 104 95 93 85 103 117 108 98 96 94 85 85 70 99 73 87 68 76 66 62 58
156 168 151 158 156 155 156 144 146 145 149 151 152 162 139 153 138 147 133 128 119 119 120 78 81 86 87 92 102 109 102 94 93 83 78 91 93 93 88 79 34 32 43
164 172 159 161 159 161 154 149 153 147 153 160 159 168 166 163 167 141 150 139 121 46 91 121 109 47 99 84 161 110 105 102 91 87 86 99 73 102 81 63 60 47 7
167 173 181 181 169 166 165 161 162 162 161 157 181 173 167 176 176 165 130 161 170 106 132 98 103 100 88 2 64 140 149 136 93 89 103 96 96 82 58 74 43 37 45
172 179 185 193 177 170 179 161 153 151 164 155 172 176 186 178 182 169 168 155 160 148 163 112 119 73 107 65 47 15 331 123 133 113 105 100 96 87 54 34 58 20 11
174 180 185 192 192 185 172 165 177 156 165 183 181 185 191 188 186 185 201 188 170 227 135 132 156 118 353 109 104 28 46 112 13 135 134 98 120 109 46 49 12 71 25
177 180 182 184 195 181 199 176 157 164 172 167 177 182 199 203 186 191 204 195 181 156 215 153 161 140 351 53 90 121 97 102 348 4 156 124 151 93 62 32 15 353 353
179 180 179 184 186 186 187 177 182 186 162 150 184 176 174 189 199 196 204 204 204 194 191 192 202 183 66 158 79 36 6 44 105 344 13 168 237 155 290 213 165 352 329
Wind_Speed_850mb
28 28 29 30 31 31 31 32 32 31 30 30 32 34 35 36 38 37 37 41 42 39 38 37 36 36 35 35 36 37 38 38 41 40 36 35 31 30 37 43 32 27 34
34 28 32 32 30 31 30 32 31 30 30 31 32 33 35 36 39 37 37 41 39 39 40 38 36 35 35 34 38 37 38 45 44 43 43 37 36 32 34 34 29 32 31
35 32 30 29 30 30 29 29 29 30 31 31 33 32 35 37 37 38 38 39 39 39 37 37 34 30 33 33 32 38 44 51 35 51 33 32 37 38 35 35 35 33 32
34 28 27 29 27 27 26 25 27 30 30 31 31 33 35 37 34 38 39 36 38 38 38 36 33 31 32 32 34 37 42 43 41 42 39 34 32 39 38 38 36 36 34
40 33 29 27 23 22 24 23 23 25 27 29 30 31 35 35 38 39 40 39 35 35 35 32 30 30 33 31 35 40 45 48 45 31 31 30 31 37 38 37 36 36 34
31 25 27 22 20 18 18 18 20 21 25 29 28 30 33 35 36 38 36 31 30 31 30 32 31 28 30 31 33 41 46 42 32 32 32 27 34 31 35 34 35 34 31
35 27 26 23 19 18 19 18 19 22 24 27 29 31 31 32 32 35 35 34 36 35 35 34 31 31 31 32 33 40 49 45 30 29 29 30 31 31 29 26 28 29 28
36 32 23 22 19 21 21 20 21 22 24 27 27 31 30 32 31 33 34 36 37 37 37 37 35 33 34 33 35 41 43 35 25 28 29 31 31 28 27 29 25 22 20
28 27 22 18 18 19 22 21 23 24 25 29 27 28 30 31 29 30 32 36 37 36 38 37 36 34 34 34 39 46 45 41 28 30 26 23 30 30 28 28 23 23 23
25 23 27 22 16 22 19 23 24 27 26 29 28 29 30 32 31 30 28 33 31 35 35 36 37 37 36 37 39 42 38 32 23 22 20 26 24 26 25 25 24 24 24
23 28 23 18 25 19 20 21 23 25 28 27 27 32 35 23 25 26 28 34 34 35 35 38 38 33 35 41 41 36 34 22 20 18 19 24 23 25 25 25 24 24 25
25 23 23 27 19 26 20 22 22 26 22 23 23 27 28 31 29 23 30 30 31 33 33 35 33 31 21 15 20 28 21 22 22 18 23 22 24 25 25 25 26 27 27
25 28 27 25 25 20 17 21 21 14 19 26 24 25 26 26 27 20 23 20 18 22 17 21 17 22 18 18 21 21 23 21 20 16 22 23 24 26 26 28 29 29 30
24 25 24 25 15 21 19 24 19 20 20 22 21 24 27 23 22 17 17 17 15 14 18 20 19 18 18 19 19 22 22 21 20 16 26 25 27 28 30 30 30 30 30
26 23 23 22 26 22 31 21 21 26 25 23 22 19 23 21 23 20 14 16 14 13 16 17 17 18 18 17 17 20 19 22 22 17 27 28 28 29 30 30 29 30 30
26 24 23 22 23 25 26 26 22 25 28 25 20 20 23 22 21 20 17 14 13 12 16 11 10 13 14 13 15 17 19 18 19 21 15 27 28 27 29 29 30 31 32
26 25 25 24 22 17 35 26 21 27 25 25 20 23 20 22 15 17 13 20 13 16 13 13 12 13 11 12 14 16 16 18 15 17 15 10 25 26 25 27 29 31 32
28 25 27 24 23 22 26 26 24 26 25 22 23 20 20 21 18 19 15 14 15 12 11 11 12 12 11 10 14 14 15 13 13 15 11 12 12 7 21 25 29 32 33
27 28 28 27 28 24 30 22 26 28 24 24 23 19 16 13 18 11 13 10 16 9 10 11 10 10 12 11 14 12 12 12 12 10 10 13 14 15 6 26 32 32 33
27 29 31 29 27 26 23 26 24 25 23 23 21 25 16 11 13 11 11 14 13 8 7 7 15 8 9 2 13 10 10 10 10 11 8 11 9 11 6 8 12 19 30
28 27 23 30 30 29 23 26 25 26 24 24 21 16 18 12 10 23 9 11 14 7 17 6 3 11 8 4 3 9 7 10 11 10 11 10 9 8 7 10 11 9 18
29 27 27 24 28 28 19 22 22 25 21 24 20 20 16 15 12 11 15 12 13 10 9 1 4 5 9 5 11 4 13 14 11 9 9 8 10 9 6 8 9 10 11
31 28 28 22 28 27 21 17 20 20 17 18 14 19 20 17 15 11 14 10 14 17 10 6 3 5 9 7 7 11 8 17 15 9 8 5 8 6 5 5 7 7 11
31 27 28 25 24 26 26 21 24 21 17 18 15 19 18 18 18 15 13 16 24 11 7 3 3 10 9 7 8 8 14 5 9 14 9 5 7 6 5 2 9 2 12
34 30 27 29 23 28 24 29 21 16 13 13 17 19 23 24 18 18 16 14 20 10 16 3 6 5 1 7 9 8 8 6 5 9 17 11 8 6 3 4 6 8 6
36 33 29 31 26 24 24 20 20 15 13 14 18 13 14 11 18 22 19 18 18 14 11 9 9 11 3 5 8 5 2 7 6 7 2 6 7 6 3 8 2 6 10
Wind_Direction_850mb
132 130 116 111 111 107 106 105 96 91 89 87 87 86 87 89 92 92 93 96 92 95 94 91 90 87 81 81 83 83 85 85 82 77 79 85 83 92 99 95 89 98 95
135 132 119 113 113 109 106 104 98 91 87 87 86 88 91 92 94 94 92 97 95 96 94 89 86 84 81 79 79 82 85 80 76 79 68 68 77 89 97 102 117 99 94
135 132 123 122 117 112 109 106 101 97 91 89 92 93 91 93 93 96 101 97 97 96 90 89 83 85 84 84 81 85 87 81 68 83 78 66 76 84 90 95 91 91 91
129 128 126 120 114 115 112 105 98 94 90 86 94 98 94 97 95 96 102 98 95 92 89 85 84 87 82 83 81 82 89 86 70 83 86 87 75 79 85 84 88 87 84
136 134 133 124 120 113 107 105 101 100 94 91 95 97 99 100 99 97 97 99 95 90 88 85 86 81 83 84 84 84 88 73 66 64 78 73 77 77 82 78 77 84 86
125 136 131 126 123 123 118 112 110 101 100 96 95 98 97 103 104 101 97 95 92 90 87 84 85 81 86 85 87 92 86 84 79 74 67 80 81 83 79 85 84 82 82
132 130 130 126 117 114 112 109 116 114 106 104 101 99 100 104 107 104 95 93 93 90 87 85 85 82 83 84 88 97 90 76 77 77 76 77 85 90 80 85 85 82 79
136 135 123 123 120 118 120 112 114 115 112 109 108 99 101 111 108 106 97 96 94 88 83 82 82 82 81 84 85 95 91 98 75 80 76 77 79 85 83 77 80 83 83
136 127 126 119 121 118 120 115 116 113 116 118 116 106 104 114 113 109 99 100 92 85 82 82 81 81 81 81 84 92 91 81 87 84 72 69 72 77 79 77 71 71 68
119 128 134 132 118 106 107 120 121 122 119 119 117 107 101 101 105 96 98 103 90 87 85 80 76 73 73 77 81 81 76 76 79 80 86 83 75 75 75 73 71 66 65
140 134 142 103 125 138 112 114 112 115 113 109 114 106 93 98 103 104 117 103 92 83 78 72 72 68 71 63 66 68 73 86 85 83 79 78 79 76 73 72 71 71 68
145 138 138 134 141 122 119 121 111 100 114 122 119 97 112 120 118 122 112 104 93 80 69 64 64 61 64 39 50 66 81 80 79 75 71 76 79 78 77 76 74 71 70
153 130 126 121 135 117 129 104 116 109 111 126 113 115 119 110 103 112 101 81 76 48 56 42 25 68 87 79 76 78 80 80 77 75 71 77 80 81 81 80 79 78 75
148 134 132 144 146 127 128 107 127 131 134 127 138 116 111 111 119 121 121 117 99 96 75 69 68 94 87 79 84 75 82 83 83 65 67 75 79 84 84 84 83 80 75
152 146 144 144 144 139 122 128 129 132 134 137 123 131 117 124 121 121 128 109 113 106 84 78 80 85 91 86 84 80 75 85 88 76 59 74 80 84 87 85 83 79 74
154 150 145 148 133 155 128 128 128 133 133 131 138 131 122 125 124 122 111 102 113 74 82 85 100 85 92 86 87 84 83 72 92 92 61 62 77 84 85 85 82 77 70
159 158 151 147 149 163 132 128 127 133 133 135 142 126 130 125 129 128 126 117 89 76 75 66 83 88 84 83 93 97 79 85 75 86 95 53 48 66 79 81 77 69 62
157 157 152 153 152 135 135 133 132 135 138 142 137 135 141 146 135 106 103 99 117 82 90 83 92 90 94 100 102 98 94 84 82 77 82 85 91 14 51 71 70 66 59
157 157 154 155 154 147 152 137 142 140 140 143 144 148 149 133 133 103 121 133 98 81 104 95 93 85 103 117 108 98 96 94 85 85 70 99 73 87 68 76 66 62 58
156 168 151 158 156 155 156 144 146 145 149 151 152 162 139 153 138 147 133 128 119 119 120 78 81 86 87 92 102 109 102 94 93 83 78 91 93 93 88 79 34 32 43
164 172 159 161 159 161 154 149 153 147 153 160 159 168 166 163 167 141 150 139 121 46 91 121 109 47 99 84 161 110 105 102 91 87 86 99 73 102 81 63 60 47 7
167 173 181 181 169 166 165 161 162 162 161 157 181 173 167 176 176 165 130 161 170 106 132 98 103 100 88 2 64 140 149 136 93 89 103 96 96 82 58 74 43 37 45
172 179 185 193 177 170 179 161 153 151 164 155 172 176 186 178 182 169 168 155 160 148 163 112 119 73 107 65 47 15 331 123 133 113 105 100 96 87 54 34 58 20 11
174 180 185 192 192 185 172 165 177 156 165 183 181 185 191 188 186 185 201 188 170 227 135 132 156 118 353 109 104 28 46 112 13 135 134 98 120 109 46 49 12 71 25
177 180 182 184 195 181 199 176 157 164 172 167 177 182 199 203 186 191 204 195 181 156 215 153 161 140 351 53 90 121 97 102 348 4 156 124 151 93 62 32 15 353 353
179 180 179 184 186 186 187 177 182 186 162 150 184 176 174 189 199 196 204 204 204 194 191 192 202 183 66 158 79 36 6 44 105 344 13 168 237 155 290 213 165 352 329